www.pogodaiklimat.ru

Погода и климат >> Архив погоды >> Мексика >> Агуаскальентес


ПОГОДА в Агуаскальентесе

  • Прогноз погоды в Агуаскальентесе
  • Монитор погоды в Агуаскальентесе

АРХИВ ПОГОДЫ в Агуаскальентесе

Время (UTC), дата Ветер
(напр.,м/с)
 
Видим.   Явления Облачность Т
(С)
Тd
(С)
f
(%)
Тe
(С)
Тes
(С)
Комфортность P
(гПа)
Po
(гПа)
Тmin
(С)
Tmax
(С)
R
(мм)
R24
(мм)
S
(см)
00 17.01 штиль 0 20 км мгла 8/1 1000 м
[Cu hum Cs]
+21.0 +1.7 28 +21 +21 комфорт 1015.3 817.6 +8.0 +23.4
03 17.01 З 3 10 км 10/4 1200 м
[Sc Cs]
+17.2 +5.9 47 +17 +17 1015.1 819.5
06 17.01 штиль 0 10 км {морось} 9/3 1000 м
[Sc Cs]
+14.2 +5.9 57 +14 +14 1015.6 819.9 0.0
15 17.01 штиль 0 20 км слаб. морось 10/10 1200 м
[Sc diur, vesp]
+12.6 +8.1 74 +12 +12 1021.5 820.9 0.0
18 17.01 В 2 15 км слаб. морось 8/8 1000 м
[Frnb]
+16.4 +9.8 65 +17 +19 1015.1 817.4 0.5
21 17.01 штиль 0 20 км мгла 9/9 1200 м
[Sc diur, vesp]
+19.8 +6.2 41 +20 +21 1016.5 817.7
00 18.01 В 2 15 км слаб. морось 8/8 1000 м
[]
+16.4 +9.8 65 +17 +17 1015.1 817.4 0.5
03 18.01 В 2 15 км слаб. морось 8/8 1000 м
[]
+16.4 +9.8 65 +17 +17 1015.1 817.4 0.5
06 18.01 СВ 2 10 км дымка 8/8 1000 м
[]
+12.8 +11.1 89 +12 +12 1017.9 820.3 2
15 18.01 штиль 0 20 км 4/4 1200 м
[Cu med, cong]
+12.4 +9.2 81 +12 +14 1020.3 819.5
18 18.01 Ю 1 20 км мгла 5/5 1200 м
[Cu med, cong]
+17.8 +7.2 50 +19 +26 1020.0 819.7 +11.2 +18.2
21 18.01 штиль 0 20 км слаб. морось 8/8 1200 м
[Sc diur, vesp]
+18.0 +8.0 52 +18 +20 1015.6 816.5 1
00 19.01 штиль 0 20 км 10/5 1000 м
[Sc diur, vesp Ac und]
+18.6 +6.1 44 +19 +19 1013.4 816.1 +11.2 +22.6 1
15 19.01 штиль 0 20 км мгла 4/0
[Ci]
+7.0 +5.9 93 +6 +9 1023.2 819.7
18 19.01 штиль 0 20 км 4/0
[Ci]
+19.2 +0.2 28 +19 +34 опасность
простуды
1021.7 818.9 +5.0 +19.8
03 20.01 С 4 10 км 4/0
[Ci sp]
+15.8 -5.2 23 +15 +15 1014.0 818.7
06 20.01 С 2 10 км ясно +11.0 -3.8 35 +10 +10 1016.9 820.4 +5.0 +23.8
15 20.01 С 2 20 км 6/0
[Ci sp]
+6.2 +1.5 72 +4 +6 1026.8 822.3
18 20.01 С 1 20 км 5/0
[Ci sp]
+13.8 +2.8 47 +14 +27 опасность
простуды
1026.3 822.1 +5.6 +17.4
03 21.01 СВ 1 10 км ясно +12.2 +2.4 51 +13 +13 1016.3 818.9
06 21.01 штиль 0 10 км ясно +9.2 +0.4 54 +9 +9 1017.6 819.9 +5.6 +23.0
15 21.01 штиль 0 20 км ясно +6.0 +1.7 74 +5 +9 1026.5 820.7
18 21.01 штиль 0 20 км ясно +19.2 +0.2 28 +19 +35 опасность
простуды
1024.4 820.0 +2.0 +20.0
21 21.01 З 1 25 км ясно +25.0 -4.3 14 +23 +33 комфорт 1016.6 816.3
00 22.01 Ю 1 15 км ясно +23.4 -6.7 13 +21 +21 комфорт 1013.1 815.6 +2.0 +26.6
03 22.01 Ю 1 10 км ясно +14.0 -1.6 34 +15 +15 1010.4 816.4
06 22.01 штиль 0 10 км ясно +10.0 -0.1 49 +10 +10 1012.1 817.2 +2.0 +26.6
15 22.01 штиль 0 20 км ясно +7.4 +3.0 74 +7 +10 1021.7 817.9
18 22.01 штиль 0 20 км ясно +21.0 +2.6 30 +21 +37 комфорт 1021.1 818.7 +4.2 +22.0
21 22.01 ЮЗ 6 20 км ясно +25.0 -1.8 17 +23 +26 комфорт 1013.2 814.6
00 23.01 ЮЗ 3 15 км 4/0
[Cs]
+22.8 -3.5 17 +21 +21 комфорт 1010.6 814.2 +4.2 +25.8
03 23.01 штиль 0 10 км 4/0
[]
+15.0 -1.1 33 +15 +15 1009.8 816.1
06 23.01 штиль 0 10 км 4/0
[Cs]
+13.0 +5.7 61 +13 +13 1011.2 816.7 +4.2 +25.8
15 23.01 штиль 0 20 км ясно +9.8 +8.2 90 +9 +13 1021.1 818.5
18 23.01 Ю 2 20 км 5/0
[Ci]
+20.0 +4.3 36 +21 +32 комфорт 1019.4 817.9 +7.4 +20.4

 

Местоположение метеостанции Агуаскальентес (Мексика): широта 21.87 долгота -102.30 высота над уровнем моря 1874 м.

В архиве по умолчанию представлена погода в Агуаскальентесе за последнюю неделю. Архивные данные за месяц целиком и за предыдущие месяцы, начиная с января 2011 года, Вы можете получить, выбрав интересующий диапазон дат из раскрывающегося списка и нажав кнопку "Ввод!".


*Определитесь, кто Вы:
робот инопланетянин человек

Внимание! Время в таблицах - всемирное. Для получения местного времени необходимо прибавить поправку, которая равна -6 ч.

Смотрите также архив погоды в соседних городах и на ближайших метеорологических станциях:

Погода в Лагос де Морено (Мексика) (70 км)
Погода в Колотлане (Мексика) (103 км)
Погода в Сакатекасе (Мексика) (103 км)
Погода в Уэхукаре (Мексика) (124 км)
Погода в Сан-Луис-Потоси (Мексика) (148 км)
Погода в Гуанахуато (Мексика) (149 км)
Погода в Гвадалахаре (Мексика) (169 км)
Погода в Заморе (Мексика) (210 км)
Погода в Сомбререте (Мексика) (237 км)
Погода в Рио-Верде (Мексика) (240 км)

Пояснения к столбцам:

Ветер - указаны скорость ветра в м/с - средняя за 10 мин, порывы в срок и между сроками (в фигурных скобках) и направление, откуда дует ветер: С - северный, СВ - северо-восточный, В - восточный, ЮВ - юго-восточный, Ю - южный, ЮЗ - юго-западный, З - западный, СЗ - северо-западный.
Видимость - горизонтальная дальность видимости в метрах или километрах. При видимости от 1 до 10 км при отсутствии осадков обычно наблюдается дымка, при ухудшении видимости до 1 км и менее - туман. В сухую погоду видимость может ухудшаться дымом, пылью или мглою.
Явления - указаны атмосферные явления, наблюдавшиеся в срок или в последний час перед сроком; фигурными скобками обозначены явления, наблюдавшиеся между сроками (за 1-3 часа до срока); квадратными скобками обозначены град или гололедные отложения с указанием их диаметра в мм.
Облачность - указаны через наклонную черту общая и нижняя облачность в баллах и высота нижней границы облаков в метрах; квадратными скобками обозначены формы облаков: Ci - перистые, Cs - перисто-слоистые, Cc - перисто-кучевые, Ac - высококучевые, As - высокослоистые, Sc - слоисто-кучевые, Ns - слоисто-дождевые, Cu - кучевые, Cb - кучево-дождевые. Подробнее классификацию облаков см. в Атласе облаков (PDF).
T - Температура воздуха - температура, измеренная на высоте 2 м над землей.
Td - Температура точки росы - температура, при понижении до которой содержащийся в воздухе водяной пар достигнет насыщения.
f - Относительная влажность воздуха - влажноcть воздуха, измеренная на высоте 2 м над землей.
Te - Эффективная температура - температура, которую ощущает одетый по сезону человек в тени. Характеристика душности погоды. При расчете учитывается влияние влажности воздуха и скорости ветра на теплоощущения человека.
Tes - Эффективная температура на солнце - температура, которую ощущает человек, с поправкой на солнечный нагрев. Характеристика знойности погоды. Зависит от высоты солнца над горизонтом, облачности и скорости ветра. Ночью, в пасмурную погоду, а также при ветре 12 м/с и более поправка равна нулю.
P - Атмосферное давление - приведенное к уровню моря атмосферное давление.
Po - Атмосферное давление - измеренное на уровне метеостанции атмосферное давление.
Tmin - Минимальная температура - минимум температуры воздуха на высоте 2 м над землей.
Tmax - Максимальная температура - максимум температуры воздуха на высоте 2 м над землей.
R - Количество осадков - Количество выпавших осадков за период времени, мм. При наведении курсора мыши на число - период времени, за который выпало указанное количество осадков.
R24 - Количество осадков - Количество выпавших осадков за 24 часа, мм.
S - Снежный покров - Высота снежного покрова, см. При наведении курсора мыши на число - состояние снежного покрова и степень покрытия местности в баллах.